CA3EVY-3 Weather Reports


Display with metric or nautical units.
time (UTC)temp
F
wind
direction
speed
MPH
gust
MPH
rain 1hr
in
rain 24hr
in
rain mn
in
humidity
%
barometer
mb
20260507124504 53 0.0 0.0 0.00 0.00 0.00 72 924.8
20260507123003 53 0.0 0.0 0.00 0.00 0.00 73 924.9
20260507121504 53 0.0 0.0 0.00 0.00 0.00 73 924.8
20260507120005 52 0.0 0.0 0.00 0.00 0.00 72 924.6
20260507114503 52 0.0 0.0 0.00 0.00 0.00 72 924.2
20260507113003 52 0.0 0.0 0.00 0.00 0.00 73 924.2
20260507111504 52 0.0 0.0 0.00 0.00 0.00 73 924.3
20260507110004 52 0.0 0.0 0.00 0.00 0.00 73 924.2
20260507104504 52 0.0 0.0 0.00 0.00 0.00 73 923.8
20260507103003 52 0.0 0.0 0.00 0.00 0.00 73 923.6
20260507101503 52 0.0 0.0 0.00 0.00 0.00 73 923.6
20260507100005 52 0.0 0.0 0.00 0.00 0.00 73 923.5
20260507094503 52 0.0 0.0 0.00 0.00 0.00 73 923.4
20260507093003 52 0.0 0.0 0.00 0.00 0.00 73 923.2
20260507091503 52 0.0 0.0 0.00 0.00 0.00 73 923.0
20260507090005 52 0.0 0.0 0.00 0.00 0.00 73 923.1
20260507084503 52 0.0 0.0 0.00 0.00 0.00 73 922.9
20260507083004 52 0.0 0.0 0.00 0.00 0.00 73 922.9
20260507081504 52 0.0 0.0 0.00 0.00 0.00 73 922.7
20260507080004 53 0.0 0.0 0.00 0.00 0.00 73 922.7
20260507074503 53 0.0 0.0 0.00 0.00 0.00 73 922.8
20260507073004 53 0.0 0.0 0.00 0.00 0.00 73 922.8
20260507071504 53 0.0 0.0 0.00 0.00 0.00 73 922.6
20260507070007 53 0.0 0.0 0.00 0.00 0.00 73 922.7
20260507064504 53 0.0 0.0 0.00 0.00 0.00 73 922.8
20260507063003 53 0.0 0.0 0.00 0.00 0.00 73 922.7
20260507061503 53 0.0 0.0 0.00 0.00 0.00 73 922.6
20260507060004 54 0.0 0.0 0.00 0.00 0.00 73 922.5
20260507054504 54 0.0 0.0 0.00 0.00 0.00 73 922.8
20260507053003 54 0.0 0.0 0.00 0.00 0.00 73 922.8
20260507051503 54 0.0 0.0 0.00 0.00 0.00 73 922.5
20260507050004 54 0.0 0.0 0.00 0.00 0.00 73 922.5
20260507044503 54 0.0 0.0 0.00 0.00 0.00 73 922.5
20260507043005 54 0.0 0.0 0.00 0.00 0.00 73 922.4
20260507041505 54 0.0 0.0 0.00 0.00 0.00 73 922.6
20260507040005 54 0.0 0.0 0.00 0.00 0.00 73 922.5
20260507034503 54 0.0 0.0 0.00 0.00 0.00 73 922.5
20260507033003 54 0.0 0.0 0.00 0.00 0.00 73 922.3
20260507031503 54 0.0 0.0 0.00 0.00 0.00 73 922.3
20260507030004 54 0.0 0.0 0.00 0.00 0.00 73 922.2
20260507024503 54 0.0 0.0 0.00 0.00 0.00 73 922.1
20260507023003 54 0.0 0.0 0.00 0.00 0.00 73 922.0
20260507021504 54 0.0 0.0 0.00 0.00 0.00 73 921.8
20260507020004 53 0.0 0.0 0.00 0.00 0.00 75 921.8
20260507014503 53 0.0 0.0 0.00 0.00 0.00 75 921.6
20260507013003 54 0.0 0.0 0.00 0.00 0.00 75 921.5
20260507011503 54 0.0 0.0 0.00 0.00 0.00 75 921.4
20260507010003 54 0.0 0.0 0.00 0.00 0.00 74 921.5
20260507004503 54 0.0 0.0 0.00 0.00 0.00 74 921.3
20260507003003 55 0.0 0.0 0.00 0.00 0.00 73 921.2
20260507001504 55 0.0 0.0 0.00 0.00 0.00 73 921.1
20260507000004 55 0.0 0.0 0.00 0.00 0.00 73 921.2
20260506234504 55 0.0 0.0 0.00 0.00 0.00 73 920.9
20260506233006 56 0.0 0.0 0.00 0.00 0.00 74 921.0
20260506231504 56 0.0 0.0 0.00 0.00 0.00 74 920.8
20260506230004 56 0.0 0.0 0.00 0.00 0.00 75 920.3
20260506224503 56 0.0 0.0 0.00 0.00 0.00 75 920.1
20260506223003 56 0.0 0.0 0.00 0.00 0.00 74 920.3
20260506221504 56 0.0 0.0 0.00 0.00 0.00 74 920.2
20260506220006 56 0.0 0.0 0.00 0.00 0.00 74 919.9
20260506214503 56 0.0 0.0 0.00 0.00 0.00 74 919.8
20260506213003 57 0.0 0.0 0.00 0.00 0.00 75 919.7
20260506211504 57 0.0 0.0 0.00 0.00 0.00 75 919.2
20260506210004 57 0.0 0.0 0.00 0.00 0.00 74 919.0
20260506204507 57 0.0 0.0 0.00 0.00 0.00 74 919.3
20260506203003 57 0.0 0.0 0.00 0.00 0.00 74 919.3
20260506201503 57 0.0 0.0 0.00 0.00 0.00 74 919.3
20260506200004 58 0.0 0.0 0.00 0.00 0.00 73 919.4
20260506194503 58 0.0 0.0 0.00 0.00 0.00 73 919.4
20260506193003 58 0.0 0.0 0.00 0.00 0.00 72 919.6
20260506191504 58 0.0 0.0 0.00 0.00 0.00 72 919.6
20260506190005 58 0.0 0.0 0.00 0.00 0.00 71 919.7
20260506184504 58 0.0 0.0 0.00 0.00 0.00 71 919.7
20260506183003 57 0.0 0.0 0.00 0.00 0.00 70 919.8
20260506181504 57 0.0 0.0 0.00 0.00 0.00 70 919.7
20260506180005 58 0.0 0.0 0.00 0.00 0.00 68 919.6
20260506174504 58 0.0 0.0 0.00 0.00 0.00 68 919.6
20260506173004 58 0.0 0.0 0.00 0.00 0.00 66 919.6
20260506171503 58 0.0 0.0 0.00 0.00 0.00 66 919.7
20260506170004 59 0.0 0.0 0.00 0.00 0.00 62 919.7
20260506164504 59 0.0 0.0 0.00 0.00 0.00 62 919.1
20260506163003 60 0.0 0.0 0.00 0.00 0.00 56 919.2
20260506161503 61 0.0 0.0 0.00 0.00 0.00 56 918.9
20260506160003 62 0.0 0.0 0.00 0.00 0.00 57 918.6
20260506154504 62 0.0 0.0 0.00 0.00 0.00 57 918.3
20260506153004 61 0.0 0.0 0.00 0.00 0.00 58 918.4
20260506151506 61 0.0 0.0 0.00 0.00 0.00 58 918.4
20260506150004 60 0.0 0.0 0.00 0.00 0.00 60 918.2
20260506144504 60 0.0 0.0 0.00 0.00 0.00 60 918.1
20260506143004 59 0.0 0.0 0.00 0.00 0.00 61 918.0
20260506141503 59 0.0 0.0 0.00 0.00 0.00 61 917.8
20260506140004 58 0.0 0.0 0.00 0.00 0.00 64 918.1
20260506134504 57 0.0 0.0 0.00 0.00 0.00 64 918.4
20260506133003 56 0.0 0.0 0.00 0.00 0.00 65 918.4
20260506131503 56 0.0 0.0 0.00 0.00 0.00 65 918.6
20260506130004 56 0.0 0.0 0.00 0.00 0.00 65 918.7